Zurück zum Katalog

GEESAT 5-06

AktivKommunikationLEO
NORAD 65555·PAYLOAD·🇨🇳 China

Gestartet Sep 8, 2025 von Yellow Sea Launch Area

Loading…

Nächste Überflüge (nächste 24 Stunden)

TLE

AktuellSource: Space-Track

Epoche: Sep 14, 2026, 12:09 UTC

1 65555U 25201F   26257.50652130  .00001168  00000-0  16423-3 0  9995
2 65555  49.9932 344.9007 0013502 304.8302  55.1366 14.84451449 55057

Verfolge GEESAT 5-06 in Echtzeit mit AllMySat

Download on the App Store